Omaha Millard, NE

4:11 PM CDT on September 19, 2017 (GMT -0500)
Millard Municipal

Weather History for KMLE - November, 2012

Change the Weather History Date:

Friday, November 23, 2012

  Actual Average (KOFF) Record (KOFF)
Temperature  
Mean Temperature 32 °F -  
Max Temperature 41 °F 45 °F 64 °F (2006)
Min Temperature 22 °F 27 °F 9 °F (2007)
Degree Days  
Heating Degree Days 34    
Moisture  
Dew Point 14 °F    
Average Humidity 53    
Maximum Humidity 69    
Minimum Humidity 37    
Precipitation  
Precipitation 0.00 in - - ()
Sea Level Pressure  
Sea Level Pressure 30.42 in    
Wind  
Wind Speed 15 mph (NW)    
Max Wind Speed 28 mph    
Max Gust Speed 38 mph    
Visibility 10 miles    
Events      
Averages and records for this station are not official NWS values.
T = Trace of Precipitation, MM = Missing Value Source: NWS Daily Summary

Daily Weather History Graph

Daily Weather History Graph

Search for Another Location

Airport or City:

Trip Planner

Search our weather history database for the weather conditions in past years. The results will help you decide how hot, cold, wet, or windy it might be!

Date:

Astronomy

Nov. 23, 2012 Rise Set
Actual Time 7:22 AM CST 4:59 PM CST
Civil Twilight 6:52 AM CST 5:29 PM CST
Nautical Twilight 6:18 AM CST 6:03 PM CST
Astronomical Twilight 5:45 AM CST 6:36 PM CST
Moon 2:16 PM CST (11/23) 2:40 AM CST (11/23)
Length of Visible Light 10h 37m
Length of Day
9h 36m
Waxing Gibbous, 80% of the Moon is Illuminated
Nov 23
Waxing Gibbous
Nov 28
Full
Dec 6
Last Quarter
Dec 13
New
Dec 19
First Quarter

Hourly Weather History & Observations

Time (CST) Temp. Windchill Dew Point Humidity Pressure Visibility Wind Dir Wind Speed Gust Speed Precip Events Conditions
12:15 AM 41.9 °F 32.8 °F 28.4 °F 59% 30.23 in 10.0 mi NW 20.7 mph 29.9 mph N/A   Clear
12:35 AM 41.4 °F 33.3 °F 26.6 °F 56% 30.24 in 10.0 mi NW 16.1 mph 25.3 mph N/A   Clear
12:55 AM 41.0 °F 31.4 °F 26.6 °F 57% 30.24 in 10.0 mi NW 21.9 mph 33.4 mph N/A   Scattered Clouds
1:15 AM 38.5 °F 30.3 °F 29.1 °F 69% 30.27 in 10.0 mi NW 13.8 mph 24.2 mph N/A   Overcast
1:35 AM 37.4 °F 26.1 °F 26.2 °F 64% 30.29 in 10.0 mi NW 24.2 mph 33.4 mph N/A   Overcast
1:55 AM 34.2 °F 21.8 °F 18.1 °F 52% 30.31 in 10.0 mi NW 24.2 mph 35.7 mph N/A   Overcast
2:15 AM 32.9 °F 19.3 °F 15.3 °F 48% 30.32 in 10.0 mi NW 27.6 mph 38.0 mph N/A   Overcast
2:35 AM 31.8 °F 20.6 °F 15.1 °F 50% 30.33 in 10.0 mi NW 17.3 mph 33.4 mph N/A   Scattered Clouds
2:55 AM 30.9 °F 19.4 °F 16.0 °F 54% 30.34 in 10.0 mi NNW 17.3 mph 32.2 mph N/A   Clear
3:15 AM 30.7 °F 18.8 °F 16.5 °F 56% 30.35 in 10.0 mi NNW 18.4 mph 31.1 mph N/A   Clear
3:35 AM 29.8 °F 17.3 °F 16.5 °F 58% 30.35 in 10.0 mi NW 19.6 mph 26.5 mph N/A   Clear
3:55 AM 29.3 °F 17.7 °F 15.8 °F 57% 30.36 in 10.0 mi NW 16.1 mph 27.6 mph N/A   Clear
4:15 AM 28.4 °F 15.8 °F 15.4 °F 58% 30.36 in 10.0 mi NW 18.4 mph 29.9 mph N/A   Clear
4:35 AM 28.2 °F 15.9 °F 15.6 °F 59% 30.38 in 10.0 mi NW 17.3 mph 24.2 mph N/A   Clear
4:55 AM 28.0 °F 18.1 °F 15.8 °F 60% 30.39 in 10.0 mi NNW 11.5 mph 23.0 mph N/A   Clear
5:15 AM 27.3 °F 18.4 °F 16.2 °F 63% 30.40 in 10.0 mi NNW 9.2 mph 18.4 mph N/A   Clear
5:35 AM 27.0 °F 15.6 °F 15.6 °F 62% 30.40 in 10.0 mi NW 13.8 mph 23.0 mph N/A   Clear
5:55 AM 26.6 °F 16.8 °F 15.4 °F 63% 30.41 in 10.0 mi NW 10.4 mph 21.9 mph N/A   Clear
6:15 AM 26.2 °F 14.2 °F 15.6 °F 64% 30.42 in 10.0 mi NW 15.0 mph 20.7 mph N/A   Clear
6:35 AM 25.5 °F 13.8 °F 14.7 °F 64% 30.43 in 10.0 mi NW 13.8 mph 25.3 mph N/A   Clear
6:55 AM 24.8 °F 14.0 °F 14.5 °F 65% 30.45 in 10.0 mi NW 11.5 mph 16.1 mph N/A   Clear
7:15 AM 24.6 °F 10.9 °F 14.9 °F 67% 30.45 in 10.0 mi NW 18.4 mph 23.0 mph N/A   Clear
7:35 AM 24.3 °F 10.4 °F 14.0 °F 65% 30.45 in 10.0 mi NW 18.4 mph 28.8 mph N/A   Clear
7:55 AM 23.9 °F 11.7 °F 14.0 °F 66% 30.46 in 10.0 mi NW 13.8 mph 21.9 mph N/A   Clear
8:15 AM 24.3 °F 11.2 °F 14.0 °F 65% 30.47 in 10.0 mi NW 16.1 mph 20.7 mph N/A   Clear
8:35 AM 24.6 °F 12.2 °F 14.2 °F 65% 30.48 in 10.0 mi NW 15.0 mph 20.7 mph N/A   Clear
8:55 AM 24.8 °F 11.5 °F 14.0 °F 64% 30.49 in 10.0 mi NW 17.3 mph 26.5 mph N/A   Clear
9:15 AM 25.5 °F 12.0 °F 13.8 °F 61% 30.49 in 10.0 mi NW 18.4 mph 24.2 mph N/A   Clear
9:35 AM 25.7 °F 12.7 °F 13.5 °F 60% 30.50 in 10.0 mi NW 17.3 mph 26.5 mph N/A   Clear
9:55 AM 26.4 °F 13.2 °F 13.8 °F 59% 30.50 in 10.0 mi NW 18.4 mph 25.3 mph N/A   Clear
10:15 AM 27.3 °F 14.4 °F 13.8 °F 57% 30.50 in 10.0 mi NW 18.4 mph 24.2 mph N/A   Clear
10:35 AM 28.2 °F 15.5 °F 13.8 °F 55% 30.50 in 10.0 mi NW 18.4 mph - N/A   Clear
10:55 AM 28.9 °F 18.2 °F 13.1 °F 52% 30.50 in 10.0 mi NW 13.8 mph 26.5 mph N/A   Clear
11:15 AM 29.7 °F 17.8 °F 12.4 °F 49% 30.51 in 10.0 mi NW 17.3 mph 26.5 mph N/A   Clear
11:35 AM 30.6 °F 19.0 °F 12.6 °F 47% 30.50 in 10.0 mi NW 17.3 mph 20.7 mph N/A   Clear
11:55 AM 30.6 °F 19.4 °F 12.4 °F 47% 30.49 in 10.0 mi WNW 16.1 mph 25.3 mph N/A   Clear
12:15 PM 31.3 °F 21.1 °F 12.6 °F 46% 30.49 in 10.0 mi NW 13.8 mph 20.7 mph N/A   Clear
12:35 PM 32.0 °F 21.6 °F 12.4 °F 44% 30.49 in 10.0 mi NW 15.0 mph 19.6 mph N/A   Clear
12:55 PM 32.0 °F 21.6 °F 11.8 °F 43% 30.48 in 10.0 mi NW 15.0 mph 24.2 mph N/A   Clear
1:15 PM 32.2 °F 21.4 °F 11.7 °F 43% 30.47 in 10.0 mi NW 16.1 mph 21.9 mph N/A   Clear
1:35 PM 32.9 °F 22.8 °F 11.7 °F 41% 30.47 in 10.0 mi NW 15.0 mph 26.5 mph N/A   Clear
1:55 PM 32.9 °F 22.8 °F 11.8 °F 42% 30.46 in 10.0 mi WNW 15.0 mph 21.9 mph N/A   Clear
2:15 PM 33.6 °F 24.6 °F 11.5 °F 40% 30.46 in 10.0 mi NNW 12.7 mph 18.4 mph N/A   Clear
2:35 PM 33.8 °F 24.3 °F 10.6 °F 38% 30.45 in 10.0 mi WNW 13.8 mph 19.6 mph N/A   Clear
2:55 PM 33.8 °F 24.8 °F 10.6 °F 38% 30.46 in 10.0 mi NW 12.7 mph 20.7 mph N/A   Clear
3:15 PM 34.2 °F 25.2 °F 10.9 °F 38% 30.45 in 10.0 mi NW 12.7 mph 17.3 mph N/A   Clear
3:35 PM 34.0 °F 24.2 °F 10.6 °F 38% 30.46 in 10.0 mi WNW 15.0 mph 19.6 mph N/A   Clear
3:55 PM 33.8 °F 24.8 °F 10.2 °F 38% 30.45 in 10.0 mi NW 12.7 mph 17.3 mph N/A   Clear
4:15 PM 33.8 °F 25.8 °F 9.9 °F 37% 30.46 in 10.0 mi NNW 10.4 mph 17.3 mph N/A   Clear
4:35 PM 32.9 °F 23.7 °F 10.0 °F 39% 30.45 in 10.0 mi NW 12.7 mph 17.3 mph N/A   Clear
4:55 PM 32.0 °F 24.2 °F 9.5 °F 39% 30.45 in 10.0 mi NW 9.2 mph - N/A   Clear
5:15 PM 32.0 °F 25.6 °F 9.9 °F 40% 30.45 in 10.0 mi NW 6.9 mph - N/A   Clear
5:35 PM 31.8 °F - 10.6 °F 41% 30.45 in 10.0 mi Calm Calm - N/A   Clear
5:55 PM 31.1 °F - 10.4 °F 42% 30.45 in 10.0 mi Calm Calm - N/A   Clear
6:15 PM 30.6 °F - 10.6 °F 43% 30.45 in 10.0 mi Calm Calm - N/A   Clear
6:35 PM 30.2 °F 26.7 °F 10.4 °F 44% 30.45 in 10.0 mi NW 3.5 mph - N/A   Clear
6:55 PM 29.8 °F 24.9 °F 10.8 °F 45% 30.45 in 10.0 mi NNW 4.6 mph - N/A   Clear
7:15 PM 29.7 °F 23.7 °F 10.0 °F 44% 30.45 in 10.0 mi NW 5.8 mph - N/A   Clear
7:35 PM 29.1 °F 24.1 °F 9.9 °F 45% 30.44 in 10.0 mi NW 4.6 mph - N/A   Clear
7:55 PM 27.1 °F 21.8 °F 10.0 °F 49% 30.44 in 10.0 mi WNW 4.6 mph - N/A   Clear
8:15 PM 27.7 °F 22.4 °F 10.2 °F 48% 30.44 in 10.0 mi WNW 4.6 mph - N/A   Clear
8:35 PM 27.1 °F 21.8 °F 10.2 °F 49% 30.44 in 10.0 mi WNW 4.6 mph - N/A   Clear
8:55 PM 26.2 °F - 10.4 °F 51% 30.44 in 10.0 mi Calm Calm - N/A   Clear
9:15 PM 24.8 °F - 10.0 °F 54% 30.43 in 10.0 mi Calm Calm - N/A   Clear
9:35 PM 24.8 °F - 10.2 °F 54% 30.43 in 10.0 mi Calm Calm - N/A   Clear
9:55 PM 24.4 °F - 10.6 °F 56% 30.42 in 10.0 mi Calm Calm - N/A   Clear
10:15 PM 23.5 °F - 12.2 °F 62% 30.41 in 10.0 mi Calm Calm - N/A   Clear
10:35 PM 23.4 °F - 12.2 °F 62% 30.41 in 10.0 mi Calm Calm - N/A   Clear
10:55 PM 23.9 °F - 12.4 °F 62% 30.39 in 10.0 mi Calm Calm - N/A   Clear
11:15 PM 22.1 °F - 12.0 °F 65% 30.40 in 10.0 mi Calm Calm - N/A   Clear
11:35 PM 22.6 °F - 13.1 °F 67% 30.39 in 10.0 mi Calm Calm - N/A   Clear
11:55 PM 22.1 °F - 13.3 °F 69% 30.39 in 10.0 mi Calm Calm - N/A   Clear